Home > Time Zones > World Clock > Weather > Iran > Ahvaz > Past weeks

Flag for Iran Weather past 2 weeks in Ahvaz, Iran

Now
104 °F

Clear.


Feels Like: 100 °F
Forecast: 90 / 115 °F
Wind: 7 mph from West

Location: Ahwaz

Current Time: Jul 8, 2015 at 11:42:20 AM

Latest Report: Jul 8, 2015 at 11:00 AM


Visibility: 5 mi

Pressure: 29.42 "Hg

Humidity: 14%

Dew point: 46 °F

Location of AhvazLocation

Historic Weather in Ahvaz — Graph

°F

Ahvaz temperature yesterday

Maximum temperature yesterday: 118 °F (at 4:30 PM)
Minimum temperature yesterday: 88 °F (at 7:30 AM)
Average temperature yesterday: 105 °F

Past Weeks' High & Low Weather Summary

 TemperatureHumidityPressure
High120 °F (Jul 3, 4:30 PM)75% (Jul 4, 4:30 AM)29.62 "Hg (Jul 4, 4:30 AM)
Low82 °F (Jun 26, 6:30 AM)7% (Jul 6, 12:30 PM)29.33 "Hg (Jul 7, 5:30 PM)
Average102 °F20%29.48 "Hg
* Reported Jun 23 10:30 AM — Jul 8 10:30 AM, Ahvaz, Weather by CustomWeather, © 2015

Note: Actual official high and low records may vary slightly from our data, if they occured in-between our weather recording intervals... More about our weather records

Advertising

Ahvaz weather history for previous 24 hours

 ConditionsComfort  
Time TempWeatherWind HumidityBarometerVisibility
10:30 AM
Wed, Jul 8
100 °FSunny.9 mph17%29.42 "Hg10 mi
10:00 AM99 °FScattered clouds.7 mph19%29.42 "HgN/A
9:30 AM99 °FScattered clouds.9 mph18%29.42 "HgN/A
8:30 AM97 °FScattered clouds.9 mph16%29.39 "HgN/A
8:00 AM95 °FPartly sunny.9 mph14%29.36 "HgN/A
7:30 AM97 °FPassing clouds.9 mph14%29.36 "HgN/A
6:30 AM97 °FPassing clouds.12 mph17%29.36 "HgN/A
5:30 AM97 °FClear.12 mph17%29.33 "Hg4 mi
4:30 AM97 °FClear.7 mph18%29.33 "Hg4 mi
3:30 AM99 °FClear.14 mph16%29.33 "Hg4 mi
2:30 AM99 °FClear.12 mph16%29.33 "Hg4 mi
1:30 AM100 °FClear.14 mph17%29.36 "Hg4 mi
1:00 AM100 °FClear.12 mph15%29.36 "Hg4 mi
12:30 AM102 °FClear.14 mph14%29.36 "Hg4 mi
12:00 AM104 °FClear.16 mph12%29.36 "Hg4 mi
11:30 PM
Tue, Jul 7
104 °FClear.16 mph12%29.36 "Hg4 mi
11:00 PM104 °FClear.12 mph12%29.36 "Hg4 mi
10:30 PM106 °FClear.14 mph12%29.36 "Hg4 mi
10:00 PM108 °FSandstorm.9 mph11%29.36 "Hg4 mi
9:30 PM108 °FSandstorm.14 mph12%29.36 "Hg2 mi
9:00 PM109 °FSandstorm.12 mph11%29.36 "Hg2 mi
8:30 PM109 °FSandstorm.14 mph10%29.33 "Hg2 mi
8:00 PM111 °FSandstorm.14 mph9%29.33 "Hg2 mi
7:30 PM113 °FSandstorm.18 mph9%29.33 "Hg2 mi
7:00 PM115 °FSandstorm.16 mph9%29.33 "Hg2 mi
6:30 PM117 °FSandstorm.21 mph8%29.33 "Hg2 mi
6:00 PM117 °FSandstorm.14 mph11%29.33 "Hg2 mi
5:30 PM117 °FSandstorm.14 mph12%29.33 "Hg2 mi
5:00 PM117 °FSandstorm.14 mph11%29.36 "Hg2 mi
4:30 PM118 °FSandstorm.12 mph11%29.36 "Hg2 mi
4:00 PM117 °FScattered clouds.9 mph11%29.36 "Hg5 mi
3:30 PM117 °FScattered clouds.7 mph11%29.36 "Hg5 mi
3:00 PM115 °FPartly sunny.12 mph13%29.36 "Hg5 mi
2:30 PM115 °FPartly sunny.7 mph13%29.39 "Hg5 mi
2:00 PM111 °FScattered clouds.7 mph13%29.39 "Hg5 mi
1:30 PM109 °FScattered clouds.7 mph15%29.42 "Hg5 mi
1:00 PM106 °FPartly sunny.7 mph17%29.42 "Hg5 mi
12:30 PM104 °FPartly sunny.7 mph16%29.42 "Hg5 mi
12:00 PM104 °FPartly sunny.9 mph17%29.42 "Hg5 mi
11:30 AM100 °FPartly sunny.7 mph21%29.42 "Hg5 mi
11:00 AM99 °FClear.5 mph19%29.42 "Hg5 mi
Weather by CustomWeather, © 2015

See weather overviewHow to use our weather pages